FW5980 Weather Reports


time (UTC)temp
F
wind
direction
speed
knots
gust
knots
rain 1hr
in
rain 24hr
in
rain mn
in
humidity
%
barometer
mb
20260507114210 45 262 0.0 0.0 0.00 0.00 0.00 81 1012.5
20260507113209 45 238 0.0 0.0 0.00 0.00 0.00 80 1012.6
20260507112708 45 308 0.0 0.0 0.00 0.00 0.00 80 1012.5
20260507112208 45 239 0.0 0.0 0.00 0.00 0.00 80 1012.6
20260507111708 46 239 0.0 0.0 0.00 0.00 0.00 79 1012.6
20260507111208 46 248 0.0 0.0 0.00 0.00 0.00 79 1012.5
20260507110709 46 213 0.0 0.0 0.00 0.00 0.00 79 1012.5
20260507110207 46 254 0.0 0.0 0.00 0.00 0.00 79 1012.5
20260507105709 46 236 0.0 0.0 0.00 0.00 0.00 79 1012.5
20260507105208 46 243 0.0 0.0 0.00 0.00 0.00 78 1012.5
20260507104705 46 196 0.0 0.0 0.00 0.00 0.00 78 1012.5
20260507104206 46 262 0.0 0.0 0.00 0.00 0.00 78 1012.5
20260507103706 46 224 0.0 0.0 0.00 0.00 0.00 78 1012.5
20260507103206 46 247 0.0 0.0 0.00 0.00 0.00 78 1012.5
20260507102706 46 236 0.0 0.9 0.00 0.00 0.00 77 1012.4
20260507102206 46 261 0.0 0.9 0.00 0.00 0.00 78 1012.5
20260507101207 46 253 0.0 0.0 0.00 0.00 0.00 77 1012.5
20260507095704 46 290 0.0 0.0 0.00 0.00 0.00 77 1012.6
20260507095204 46 248 0.0 0.0 0.00 0.00 0.00 77 1012.6
20260507094704 46 230 0.0 0.0 0.00 0.00 0.00 76 1012.7
20260507093703 46 232 0.0 0.0 0.00 0.00 0.00 76 1012.8
20260507092202 47 248 0.0 0.0 0.00 0.00 0.00 75 1012.9
20260507091703 47 233 0.0 0.0 0.00 0.00 0.00 75 1012.9
20260507091202 47 274 0.0 0.0 0.00 0.00 0.00 75 1012.9
20260507090700 47 229 0.0 0.0 0.00 0.00 0.00 75 1012.9
20260507090200 47 233 0.0 0.0 0.00 0.00 0.00 75 1013.0
20260507085700 47 242 0.0 0.0 0.00 0.00 0.00 75 1013.1
20260507085201 47 250 0.0 0.0 0.00 0.00 0.00 74 1013.2
20260507084700 48 264 0.0 0.0 0.00 0.00 0.00 74 1013.2
20260507084200 48 238 0.0 0.0 0.00 0.00 0.00 74 1013.3
20260507083200 48 258 0.0 0.0 0.00 0.00 0.00 73 1013.4
20260507082700 48 258 0.0 0.9 0.00 0.00 0.00 73 1013.4
20260507081658 48 259 0.0 0.0 0.00 0.00 0.00 73 1013.5
20260507081158 48 239 0.0 0.0 0.00 0.00 0.00 72 1013.6
20260507080159 49 248 0.0 0.0 0.00 0.00 0.00 71 1013.6
20260507075658 49 268 0.0 0.0 0.00 0.00 0.00 71 1013.7
20260507074656 49 227 0.0 0.0 0.00 0.00 0.00 70 1013.9
20260507074154 49 245 0.0 0.0 0.00 0.00 0.00 70 1013.9
20260507073654 49 255 0.0 0.0 0.00 0.00 0.00 69 1013.9
20260507073152 49 244 0.0 0.0 0.00 0.00 0.00 69 1014.0
20260507072151 49 257 0.0 2.6 0.00 0.00 0.00 68 1014.1
20260507071649 49 243 0.0 1.7 0.00 0.00 0.00 68 1014.1
20260507071149 49 233 0.0 0.0 0.00 0.00 0.00 68 1014.2
20260507070651 49 238 0.0 0.0 0.00 0.00 0.00 67 1014.2
20260507065649 49 246 0.0 0.0 0.00 0.00 0.00 66 1014.4
20260507065152 49 270 0.0 0.0 0.00 0.00 0.00 64 1014.5
20260507064651 49 268 0.0 0.0 0.00 0.00 0.00 64 1014.5
20260507064148 50 257 0.0 0.0 0.00 0.00 0.00 63 1014.6
20260507063648 50 262 0.0 0.0 0.00 0.00 0.00 63 1014.6
20260507063149 50 254 0.0 4.3 0.00 0.00 0.00 62 1014.6
20260507062648 50 264 0.0 4.3 0.00 0.00 0.00 62 1014.7
20260507061647 50 241 0.0 0.0 0.00 0.00 0.00 60 1014.7
20260507061148 50 254 0.0 0.0 0.00 0.00 0.00 59 1014.8
20260507060649 50 242 0.0 0.0 0.00 0.00 0.00 58 1014.8
20260507060148 51 245 0.0 1.7 0.00 0.00 0.00 57 1014.8
20260507055648 51 281 0.0 2.6 0.00 0.00 0.00 57 1014.8
20260507055146 51 249 0.0 7.0 0.00 0.00 0.00 56 1014.7
20260507054646 51 266 0.0 7.0 0.00 0.00 0.00 56 1014.8
20260507054145 50 258 0.0 0.9 0.00 0.00 0.00 55 1014.8
20260507053147 50 254 0.0 0.0 0.00 0.00 0.00 54 1014.8
20260507052650 50 225 0.0 0.0 0.00 0.00 0.00 53 1014.8
20260507051646 51 266 0.0 0.0 0.00 0.00 0.00 51 1014.9
20260507051145 51 254 0.0 0.0 0.00 0.00 0.00 50 1014.9
20260507050144 52 237 0.0 1.7 0.00 0.00 0.00 49 1014.8
20260507045644 52 260 0.0 2.6 0.00 0.00 0.00 49 1014.8
20260507045144 52 275 0.0 2.6 0.00 0.00 0.00 48 1014.9
20260507044642 52 233 0.0 3.5 0.00 0.00 0.00 47 1015.1
20260507044143 52 234 0.0 3.5 0.00 0.00 0.00 47 1015.1
20260507043643 52 256 0.0 0.9 0.00 0.00 0.00 46 1015.1
20260507043143 52 238 0.0 2.6 0.00 0.00 0.00 46 1015.1
20260507042642 51 234 0.0 2.6 0.00 0.00 0.00 45 1015.2
20260507042143 51 278 0.0 0.0 0.00 0.00 0.00 45 1015.2
20260507041643 50 228 0.0 0.0 0.00 0.00 0.00 45 1015.2
20260507041142 50 212 0.0 0.0 0.00 0.00 0.00 44 1015.2
20260507040642 50 212 0.0 0.0 0.00 0.00 0.00 45 1015.2
20260507040143 50 212 0.0 0.0 0.00 0.00 0.00 46 1015.3
20260507035643 50 198 0.0 0.0 0.00 0.00 0.00 46 1015.3
20260507034643 49 239 0.0 0.0 0.00 0.00 0.00 47 1015.3
20260507034144 49 239 0.0 0.0 0.00 0.00 0.00 47 1015.3
20260507033643 49 239 0.0 0.0 0.00 0.00 0.00 47 1015.4
20260507033144 48 239 0.0 0.0 0.00 0.00 0.00 48 1015.4
20260507031642 48 250 0.0 0.0 0.00 0.00 0.00 46 1015.5
20260507030643 49 250 0.0 0.0 0.00 0.00 0.00 47 1015.4
20260507030143 49 250 0.0 0.0 0.00 0.00 0.00 46 1015.4
20260507025643 49 250 0.0 0.0 0.00 0.00 0.00 45 1015.4
20260507025144 49 250 0.0 0.0 0.00 0.00 0.00 45 1015.3
20260507024642 50 250 0.0 0.0 0.00 0.00 0.00 44 1015.3
20260507024143 50 250 0.0 0.0 0.00 0.00 0.00 43 1015.3
20260507023643 50 250 0.0 0.0 0.00 0.00 0.00 43 1015.3
20260507022642 51 250 0.0 0.0 0.00 0.00 0.00 41 1015.2
20260507022144 51 250 0.0 0.0 0.00 0.00 0.00 41 1015.1
20260507021643 51 250 0.0 0.0 0.00 0.00 0.00 40 1015.1
20260507020643 52 250 0.0 0.0 0.00 0.00 0.00 37 1015.1
20260507020143 53 250 0.0 0.0 0.00 0.00 0.00 36 1014.9
20260507015643 54 250 0.0 0.0 0.00 0.00 0.00 35 1014.9
20260507015142 54 250 0.0 0.0 0.00 0.00 0.00 34 1015.1
20260507014642 55 250 0.0 0.0 0.00 0.00 0.00 33 1014.9
20260507014142 56 250 0.0 0.0 0.00 0.00 0.00 32 1014.9
20260507013142 57 250 0.0 0.0 0.00 0.00 0.00 31 1014.8
20260507012642 58 250 0.0 0.0 0.00 0.00 0.00 31 1014.9
20260507012143 58 247 0.0 0.0 0.00 0.00 0.00 30 1014.8
20260507010643 59 279 0.0 0.0 0.00 0.00 0.00 29 1014.9
20260507005643 60 274 0.0 0.0 0.00 0.00 0.00 28 1014.9
20260507005142 60 276 0.0 0.0 0.00 0.00 0.00 27 1015.1
20260507004142 61 259 0.0 0.0 0.00 0.00 0.00 28 1015.1
20260507003643 60 285 0.0 0.0 0.00 0.00 0.00 27 1015.1
20260507003143 60 287 0.0 0.0 0.00 0.00 0.00 27 1015.1
20260507002643 61 280 0.0 0.0 0.00 0.00 0.00 26 1015.1
20260507002143 60 294 0.0 3.5 0.00 0.00 0.00 27 1015.2
20260507001643 60 277 0.0 3.5 0.00 0.00 0.00 27 1015.2
20260507001142 60 294 0.0 5.2 0.00 0.00 0.00 27 1015.2
20260507000642 60 295 0.0 5.2 0.00 0.00 0.00 29 1015.2
20260507000142 60 293 0.0 0.9 0.00 0.00 0.00 28 1015.3
20260506235642 61 304 0.0 0.0 0.00 0.00 0.00 27 1015.3
20260506235143 60 300 0.0 0.0 0.00 0.00 0.00 28 1015.3
20260506234642 60 279 0.0 1.7 0.00 0.00 0.00 28 1015.4
20260506233640 61 257 0.0 6.1 0.00 0.00 0.00 27 1015.4
20260506232641 60 295 0.0 3.5 0.00 0.00 0.00 28 1015.6
20260506232140 60 280 0.9 7.8 0.00 0.00 0.00 27 1015.6
20260506231138 61 283 1.7 9.6 0.00 0.00 0.00 26 1015.7
20260506230638 62 284 0.9 9.6 0.00 0.00 0.00 27 1015.7
20260506230138 61 281 0.0 3.5 0.00 0.00 0.00 28 1015.6
20260506225136 60 274 0.0 5.2 0.00 0.00 0.00 27 1015.7
20260506224634 60 252 0.0 0.9 0.00 0.00 0.00 28 1015.7
20260506223632 60 291 0.0 7.0 0.00 0.00 0.00 27 1015.8
20260506223132 60 240 0.0 1.7 0.00 0.00 0.00 27 1015.8
20260506222633 60 269 0.9 7.8 0.00 0.00 0.00 28 1015.9
20260506222128 60 290 0.9 7.8 0.00 0.00 0.00 27 1015.9
20260506221628 61 295 0.9 7.0 0.00 0.00 0.00 27 1015.8
20260506221126 61 282 0.9 8.7 0.00 0.00 0.00 27 1015.8
20260506220626 61 253 0.9 11.3 0.00 0.00 0.00 28 1015.9
20260506220124 61 295 0.9 11.3 0.00 0.00 0.00 26 1016.0
20260506215122 60 249 0.0 6.1 0.00 0.00 0.00 30 1016.1
20260506214622 60 255 0.9 7.0 0.00 0.00 0.00 27 1016.2
20260506214121 60 276 0.9 7.0 0.00 0.00 0.00 28 1016.2
20260506213621 60 19 0.0 4.3 0.00 0.00 0.00 27 1016.2
20260506213121 60 244 0.9 6.1 0.00 0.00 0.00 29 1016.3
20260506212621 60 243 0.9 13.0 0.00 0.00 0.00 27 1016.4
20260506212122 61 285 0.9 13.0 0.00 0.00 0.00 26 1016.3
20260506211619 61 248 0.9 7.8 0.00 0.00 0.00 27 1016.4
20260506211119 61 268 0.0 1.7 0.00 0.00 0.00 30 1016.4
20260506210115 59 270 0.0 4.3 0.00 0.00 0.00 28 1016.6
20260506205613 59 324 0.0 6.1 0.00 0.00 0.00 28 1016.7
20260506205113 60 288 1.7 8.7 0.00 0.00 0.00 27 1016.7
20260506204112 61 249 1.7 12.2 0.00 0.00 0.00 27 1016.9
20260506203109 61 292 0.9 7.0 0.00 0.00 0.00 29 1016.9
20260506202106 59 212 0.0 7.0 0.00 0.00 0.00 33 1017.0
20260506201104 59 278 0.0 7.0 0.00 0.00 0.00 30 1017.2
20260506200600 59 280 0.9 12.2 0.00 0.00 0.00 29 1017.2
20260506200100 60 335 0.9 12.2 0.00 0.00 0.00 27 1017.3
20260506195559 60 238 0.9 7.0 0.00 0.00 0.00 29 1017.3
20260506195059 60 316 0.9 14.8 0.00 0.00 0.00 27 1017.4
20260506194558 60 236 0.9 14.8 0.00 0.00 0.00 30 1017.5
20260506194058 60 278 0.9 10.4 0.00 0.00 0.00 30 1017.3
20260506192600 58 293 0.0 7.0 0.00 0.00 0.00 30 1017.5
20260506192056 58 293 0.0 4.3 0.00 0.00 0.00 29 1017.5
20260506191555 59 247 1.7 11.3 0.00 0.00 0.00 29 1017.5
20260506190050 60 277 0.9 8.7 0.00 0.00 0.00 29 1017.5
20260506185050 58 312 0.0 5.2 0.00 0.00 0.00 29 1017.8
20260506184051 58 316 0.9 9.6 0.00 0.00 0.00 30 1017.6
20260506183550 58 272 0.9 9.6 0.00 0.00 0.00 29 1017.7
20260506183049 58 18 0.9 7.8 0.00 0.00 0.00 30 1017.7
20260506182549 58 285 0.9 7.8 0.00 0.00 0.00 31 1017.8
20260506182047 58 248 1.7 8.7 0.00 0.00 0.00 30 1018.1
20260506181547 58 300 0.9 8.7 0.00 0.00 0.00 30 1018.1
20260506181046 58 306 0.0 3.5 0.00 0.00 0.00 32 1018.1
20260506180545 57 288 0.9 7.8 0.00 0.00 0.00 31 1018.1
20260506180044 57 282 0.9 9.6 0.00 0.00 0.00 30 1018.2
20260506175543 57 338 0.9 9.6 0.00 0.00 0.00 33 1018.3
20260506175043 57 354 0.0 4.3 0.00 0.00 0.00 30 1018.3
20260506174543 57 4 0.0 4.3 0.00 0.00 0.00 31 1018.4
20260506174043 56 293 0.0 5.2 0.00 0.00 0.00 33 1018.4
20260506173541 56 314 0.9 7.8 0.00 0.00 0.00 30 1018.5
20260506173041 56 304 0.9 7.8 0.00 0.00 0.00 31 1018.5
20260506172541 56 279 0.9 7.8 0.00 0.00 0.00 32 1018.6
20260506172041 56 304 0.9 7.8 0.00 0.00 0.00 31 1018.7
20260506171541 56 255 0.0 5.2 0.00 0.00 0.00 31 1018.7
20260506171040 56 278 0.0 3.5 0.00 0.00 0.00 33 1018.8
20260506170040 55 276 0.9 7.0 0.00 0.00 0.00 32 1019.0
20260506165540 55 285 0.9 7.0 0.00 0.00 0.00 31 1019.0
20260506165039 55 307 0.0 7.0 0.00 0.00 0.00 34 1019.0
20260506164539 55 300 0.9 9.6 0.00 0.00 0.00 34 1019.0
20260506163540 54 4 0.0 4.3 0.00 0.00 0.00 32 1019.0
20260506163036 54 304 0.0 7.8 0.00 0.00 0.00 34 1019.0
20260506162037 54 301 0.0 1.7 0.00 0.00 0.00 35 1019.1
20260506161537 54 53 0.0 1.7 0.00 0.00 0.00 34 1019.1
20260506160538 54 309 0.9 10.4 0.00 0.00 0.00 32 1019.1
20260506160035 54 266 0.9 10.4 0.00 0.00 0.00 32 1019.0
20260506155535 53 285 0.0 2.6 0.00 0.00 0.00 38 1019.0
20260506154534 53 65 0.0 0.0 0.00 0.00 0.00 37 1019.0
20260506153530 52 15 0.0 3.5 0.00 0.00 0.00 36 1019.0
20260506153030 52 270 0.0 5.2 0.00 0.00 0.00 38 1019.0
20260506152531 52 282 0.0 5.2 0.00 0.00 0.00 40 1019.0
20260506152031 53 263 0.0 0.9 0.00 0.00 0.00 38 1019.0
20260506151531 53 260 0.0 0.0 0.00 0.00 0.00 41 1019.0
20260506151029 52 252 0.0 0.0 0.00 0.00 0.00 38 1019.0
20260506150529 52 349 0.0 0.0 0.00 0.00 0.00 39 1019.0
20260506150026 52 1 0.0 0.0 0.00 0.00 0.00 39 1019.0
20260506145525 52 25 0.0 0.0 0.00 0.00 0.00 40 1019.0
20260506145025 51 3 0.0 0.0 0.00 0.00 0.00 40 1019.0
20260506144525 51 8 0.0 0.0 0.00 0.00 0.00 39 1019.0
20260506144025 51 30 0.0 0.0 0.00 0.00 0.00 39 1018.9
20260506143524 51 358 0.0 0.0 0.00 0.00 0.00 38 1019.0
20260506143024 51 290 0.0 0.0 0.00 0.00 0.00 39 1019.1
20260506142024 52 28 0.0 0.0 0.00 0.00 0.00 39 1019.0
20260506141524 52 140 0.0 0.0 0.00 0.00 0.00 42 1019.0
20260506140023 49 155 0.0 0.0 0.00 0.00 0.00 44 1019.0
20260506135022 50 84 0.0 0.0 0.00 0.00 0.00 44 1018.9
20260506134522 49 309 0.0 0.0 0.00 0.00 0.00 45 1018.8
20260506134023 49 329 0.0 0.0 0.00 0.00 0.00 44 1018.8
20260506133523 48 329 0.0 0.0 0.00 0.00 0.00 45 1018.8
20260506133024 48 317 0.0 0.0 0.00 0.00 0.00 44 1018.8
20260506132022 47 345 0.0 0.0 0.00 0.00 0.00 46 1018.6
20260506131021 46 20 0.0 0.0 0.00 0.00 0.00 48 1018.4
20260506130020 46 234 0.0 0.0 0.00 0.00 0.00 51 1018.5
20260506125520 45 13 0.0 0.0 0.00 0.00 0.00 50 1018.4
20260506125020 45 5 0.0 0.0 0.00 0.00 0.00 52 1018.3
20260506124018 44 335 0.0 0.0 0.00 0.00 0.00 51 1018.2
20260506123018 44 0 0.0 0.0 0.00 0.00 0.00 53 1018.0
20260506122018 42 354 0.0 0.0 0.00 0.00 0.00 55 1017.8
20260506121518 42 354 0.0 0.0 0.00 0.00 0.00 55 1017.6
20260506121019 42 337 0.0 0.0 0.00 0.00 0.00 55 1017.6
20260506120518 42 322 0.0 0.0 0.00 0.00 0.00 56 1017.5
20260506120019 42 322 0.0 0.0 0.00 0.00 0.00 57 1017.4
20260506115518 41 322 0.0 0.0 0.00 0.00 0.00 58 1017.4
20260506115017 41 322 0.0 0.0 0.00 0.00 0.00 58 1017.4
20260506114516 40 322 0.0 0.0 0.00 0.00 0.00 59 1017.3